Regional Weather Roundup
Issued by NWS Sioux Falls, SD

Home | Current Version | Previous Version | Text Only | Print | Product List | Glossary On
Versions: 1 2 3 4 5 6 7 8 9 10 11 12 13 14 15 16 17 18 19 20 21 22 23 24 25 26 27 28 29 30 31 32 33 34 35 36 37 38 39 40 41 42 43 44 45 46 47 48 49 50
829
ASUS43 KFSD 161602
RWRFSD

WEATHER ROUNDUP FOR SE SOUTH DAKOTA/SW MINNESOTA/NW IOWA
NATIONAL WEATHER SERVICE SIOUX FALLS SD
1000 AM CST TUE JAN 16 2018

NOTE: "FAIR" INDICATES FEW OR NO CLOUDS BELOW 12,000 FEET WITH NO
SIGNIFICANT WEATHER AND OR OBSTRUCTIONS TO VISIBILITY.


SDZ038>040-050-052>070-161700-
SOUTHEAST SOUTH DAKOTA

CITY           SKY/WX    TMP DP  RH WIND       PRES   REMARKS
BROOKINGS      CLOUDY    -8 -13  78 MISG        N/A
CHAMBERLAIN    SUNNY     -4 -11  72 SW8       30.74F WCI -19
HURON          SUNNY     -5 -14  65 NW6       30.77F WCI -18
MADISON        CLOUDY    -8  -9  92 NW10      30.69S WCI -26
MITCHELL       PTSUNNY   -5 -12  72 W7        30.80S WCI -19
SIOUX FALLS    CLOUDY    -5 -10  79 NW9       30.73R WCI -22
WINNER         FAIR      -1 -12  59 SW5       30.71S WCI -11
YANKTON        CLOUDY    -3 -10  72 NW14      30.78R WCI -22
$$

MNZ071-072-080-081-089-090-097-098-161700-
SOUTHWEST MINNESOTA

CITY           SKY/WX    TMP DP  RH WIND       PRES   REMARKS
FAIRMONT       LGT SNOW  -5 -11  75 NW17      30.71R WCI -27
JACKSON        SUNNY     -6 -11  77 NW15      30.68R WCI -27
LUVERNE        CLOUDY    -4  -9  77 NW8       30.72S WCI -19
MARSHALL       CLOUDY    -7 -13  75 NW14      30.73S WCI -28
MONTEVIDEO     CLOUDY    -6 -11  77 N9        30.75R WCI -22
PIPESTONE      CLOUDY    -4  -8  84 N8        30.66S WCI -19
REDWOOD FALLS  CLOUDY    -6 -11  79 NW9       30.73F WCI -23
WINDOM         CLOUDY    -6 -18  54 NW13      30.69R HAZE    WCI -25
WORTHINGTON    CLOUDY    -5 -10  79 NW15      30.68  WCI -26
$$

IAZ001>003-012>014-020>022-031-032-NEZ013-014-SDZ071-161700-
NORTHWEST IOWA

CITY           SKY/WX    TMP DP  RH WIND       PRES   REMARKS
CHEROKEE       MOSUNNY   -2  -8  75 NW12      30.73S WCI -19
DENISON        LGT SNOW   0  -6  78 N15       30.74R WCI -20
ESTHERVILLE    CLOUDY    -7 -11  83 NW15      30.69R WCI -28
LE MARS        CLOUDY    -4  -9  77 NW10      30.76S WCI -21
ORANGE CITY    CLOUDY    -2  -8  78 NW8       30.72R WCI -17
SHELDON        CLOUDY    -4  -9  77 NW13      30.71R WCI -23
SIOUX CITY     PTSUNNY   -2  -8  76 NW14      30.78R WCI -21
SPENCER        PTSUNNY   -4 -11  72 NW14      30.71R WCI -24
STORM LAKE     SUNNY     -4  -9  77 NW13      30.69S WCI -23
$$

ABBREVIATIONS USED IN REMARKS
   TC - TEMPERATURE IN CELSIUS
  WCI - WIND CHILL INDEX
   HX - HEAT INDEX
  VSB - VISIBILITY





USA.gov is the U.S. government's official web portal to all federal, state and local government web resources and services.